DW1824 Weather Reports


Display with metric or nautical units.
time (UTC)temp
F
wind
direction
speed
MPH
gust
MPH
rain 1hr
in
rain 24hr
in
rain mn
in
humidity
%
barometer
mb
20260507060330 66 2 3.0 10.0 0.00 0.03 0.00 83 1014.2
20260507055357 66 304 4.0 14.0 0.00 0.03 0.00 83 1014.3
20260507054402 66 301 4.0 11.0 0.00 0.03 0.00 83 1013.9
20260507053325 67 29 3.0 13.0 0.00 0.03 0.00 82 1013.7
20260507052334 67 2 6.0 15.0 0.00 0.03 0.00 82 1013.9
20260507051343 67 281 6.0 13.0 0.00 0.03 0.00 82 1013.7
20260507050328 67 350 4.0 15.0 0.00 0.03 0.00 82 1013.8
20260507045337 67 309 4.0 10.0 0.00 0.03 0.03 82 1014.0
20260507044342 67 22 4.0 14.0 0.00 0.03 0.03 82 1013.7
20260507043348 67 360 6.0 15.0 0.00 0.03 0.03 81 1013.8
20260507042334 67 345 5.0 15.0 0.00 0.03 0.03 81 1013.8
20260507041324 68 17 4.0 14.0 0.00 0.03 0.03 81 1013.8
20260507040348 68 335 4.0 16.0 0.00 0.03 0.03 81 1013.5
20260507035354 68 354 5.0 16.0 0.00 0.03 0.03 81 1013.5
20260507034342 69 321 5.0 10.0 0.00 0.03 0.03 81 1013.4
20260507033328 69 345 4.0 13.0 0.00 0.03 0.03 80 1013.4
20260507032335 69 345 6.0 12.0 0.00 0.03 0.03 80 1013.6
20260507031344 69 301 5.0 12.0 0.00 0.03 0.03 80 1013.3
20260507030332 70 1 4.0 16.0 0.00 0.03 0.03 79 1013.0
20260507025324 70 340 5.0 14.0 0.00 0.03 0.03 80 1012.9
20260507024332 70 333 6.0 13.0 0.00 0.03 0.03 80 1012.8
20260507023338 70 3 4.0 12.0 0.00 0.03 0.03 80 1012.4
20260507022326 70 335 3.0 10.0 0.00 0.03 0.03 81 1012.3
20260507021334 70 345 6.0 13.0 0.00 0.03 0.03 81 1011.9
20260507020340 70 356 3.0 9.0 0.00 0.03 0.03 81 1011.7
20260507015329 70 335 3.0 9.0 0.00 0.03 0.03 80 1011.5
20260507014402 71 323 3.0 8.0 0.00 0.03 0.03 80 1011.3
20260507013327 71 328 4.0 11.0 0.00 0.03 0.03 79 1011.3
20260507012334 71 292 5.0 12.0 0.00 0.03 0.03 79 1011.0
20260507011339 71 360 4.0 13.0 0.00 0.03 0.03 79 1010.8
20260507010323 72 323 4.0 10.0 0.00 0.03 0.03 79 1010.8
20260507005331 72 316 5.0 12.0 0.00 0.03 0.03 79 1010.5
20260507004337 72 323 6.0 14.0 0.00 0.03 0.03 79 1010.3
20260507003325 72 345 4.0 14.0 0.00 0.03 0.03 79 1010.3
20260507002332 73 318 5.0 18.0 0.00 0.03 0.03 79 1010.2
20260507001339 73 287 6.0 13.0 0.00 0.03 0.03 79 1010.0
20260507000324 73 350 5.0 13.0 0.00 0.03 0.03 79 1009.9
20260506235333 73 333 6.0 14.0 0.00 0.03 0.03 78 1009.8
20260506234359 73 300 5.0 16.0 0.00 0.03 0.03 78 1009.8
20260506233324 74 304 7.0 16.0 0.00 0.03 0.03 78 1009.5
20260506232333 76 289 7.0 17.0 0.00 0.03 0.03 78 1009.5
20260506231340 80 279 8.0 16.0 0.00 0.03 0.03 74 1009.3
20260506230325 84 288 3.0 6.0 0.00 0.03 0.03 83 1008.7
20260506225330 84 330 4.0 10.0 0.00 0.03 0.03 82 1008.7
20260506224336 85 350 2.0 5.0 0.00 0.03 0.03 83 1008.6
20260506223340 85 354 2.0 3.0 0.00 0.03 0.03 83 1008.7
20260506222327 84 11 1.0 3.0 0.00 0.03 0.03 83 1008.7
20260506221337 85 340 0.0 1.0 0.00 0.03 0.03 83 1008.6
20260506220342 85 350 2.0 3.0 0.00 0.03 0.03 82 1008.6
20260506215332 85 340 0.0 3.0 0.00 0.03 0.03 82 1008.6
20260506214341 85 290 0.0 0.0 0.00 0.03 0.03 80 1008.5
20260506213346 84 350 0.0 0.0 0.00 0.03 0.03 80 1008.4
20260506212330 84 350 0.0 0.0 0.00 0.03 0.03 81 1008.5
20260506211337 84 300 0.0 0.0 0.00 0.03 0.03 82 1008.6
20260506210326 84 288 0.0 0.0 0.00 0.03 0.03 83 1008.7
20260506205332 84 156 0.0 0.0 0.00 0.03 0.03 82 1008.6
20260506204338 84 202 0.0 0.0 0.00 0.03 0.03 82 1008.7
20260506203342 84 308 0.0 3.0 0.00 0.03 0.03 82 1008.9
20260506202330 84 200 1.0 4.0 0.00 0.03 0.03 80 1008.8
20260506201338 84 202 0.0 2.0 0.00 0.03 0.03 81 1009.1
20260506200341 83 125 3.0 4.0 0.00 0.03 0.03 81 1009.2
20260506195328 83 127 2.0 5.0 0.00 0.03 0.03 81 1009.1
20260506194339 84 122 0.0 4.0 0.00 0.03 0.03 80 1009.2
20260506193342 84 125 1.0 4.0 0.00 0.03 0.03 82 1009.2
20260506192330 84 108 1.0 4.0 0.01 0.03 0.03 82 1009.4
20260506191339 83 131 4.0 5.0 0.01 0.03 0.03 83 1009.5
20260506190341 84 129 1.0 5.0 0.01 0.03 0.03 82 1009.6
20260506185349 83 82 2.0 3.0 0.01 0.03 0.03 84 1009.6
20260506184336 82 34 0.0 1.0 0.01 0.03 0.03 85 1009.8
20260506183345 82 107 1.0 4.0 0.02 0.03 0.03 85 1009.8
20260506182351 81 130 0.0 3.0 0.01 0.02 0.02 86 1010.0
20260506181336 81 117 2.0 4.0 0.01 0.02 0.02 87 1010.1
20260506180338 80 135 0.0 3.0 0.01 0.02 0.02 89 1010.3
20260506175325 80 123 0.0 2.0 0.01 0.02 0.02 90 1010.5
20260506174352 79 188 1.0 3.0 0.01 0.02 0.02 89 1010.8
20260506173336 80 110 1.0 3.0 0.00 0.01 0.01 88 1010.9
20260506172324 80 23 0.0 1.0 0.01 0.01 0.01 90 1011.0
20260506171355 80 4 0.0 1.0 0.01 0.01 0.01 90 1011.2
20260506170400 80 4 0.0 1.0 0.01 0.01 0.01 90 1011.2
20260506165328 79 128 0.0 0.0 0.01 0.01 0.01 90 1011.3
20260506164336 79 128 0.0 1.0 0.01 0.01 0.01 89 1011.2
20260506163359 79 129 0.0 4.0 0.01 0.01 0.01 87 1011.1
20260506162324 80 123 1.0 4.0 0.00 0.00 0.00 86 1011.0
20260506161331 80 128 2.0 5.0 0.00 0.00 0.00 85 1010.9
20260506160334 80 130 2.0 7.0 0.00 0.00 0.00 86 1010.5
20260506155325 80 140 0.0 3.0 0.00 0.00 0.00 87 1010.5
20260506154333 80 130 0.0 2.0 0.00 0.00 0.00 87 1010.4
20260506153340 79 121 1.0 5.0 0.00 0.00 0.00 87 1010.4
20260506152327 79 142 0.0 4.0 0.00 0.00 0.00 87 1010.5
20260506151335 79 133 2.0 4.0 0.00 0.00 0.00 87 1010.5
20260506150358 79 141 1.0 5.0 0.00 0.00 0.00 87 1010.3
20260506145326 79 130 4.0 5.0 0.00 0.00 0.00 88 1010.1
20260506144337 79 129 2.0 4.0 0.00 0.00 0.00 90 1010.1
20260506143401 79 125 2.0 6.0 0.00 0.00 0.00 90 1009.8
20260506142328 78 124 2.0 6.0 0.00 0.00 0.00 91 1009.5
20260506141336 78 131 3.0 8.0 0.00 0.00 0.00 91 1009.4
20260506140340 78 123 2.0 6.0 0.00 0.00 0.00 92 1009.5
20260506135329 77 129 2.0 5.0 0.00 0.00 0.00 92 1009.6
20260506134337 77 111 3.0 7.0 0.00 0.00 0.00 93 1009.6
20260506133326 77 114 4.0 9.0 0.00 0.00 0.00 93 1009.6
20260506132353 77 126 3.0 7.0 0.00 0.00 0.00 94 1009.6
20260506131340 76 127 2.0 7.0 0.00 0.00 0.00 94 1009.7
20260506130323 76 127 2.0 4.0 0.00 0.00 0.00 94 1009.9
20260506125332 76 78 0.0 1.0 0.00 0.00 0.00 94 1009.8
20260506124340 75 117 0.0 0.0 0.00 0.00 0.00 94 1009.7
20260506123326 75 97 0.0 0.0 0.00 0.00 0.00 94 1009.6
20260506122339 75 101 0.0 0.0 0.00 0.00 0.00 94 1009.5
20260506121346 75 119 0.0 0.0 0.00 0.00 0.00 94 1009.5
20260506120329 75 119 0.0 2.0 0.00 0.00 0.00 94 1009.4
20260506115336 75 121 1.0 3.0 0.00 0.00 0.00 94 1009.2
20260506114324 75 121 0.0 2.0 0.00 0.00 0.00 94 1009.1
20260506113328 75 133 1.0 3.0 0.00 0.00 0.00 94 1009.0
20260506112336 75 141 1.0 5.0 0.00 0.00 0.00 94 1009.0
20260506111342 75 127 3.0 6.0 0.00 0.00 0.00 94 1008.8
20260506110329 75 144 1.0 4.0 0.00 0.00 0.00 94 1008.8
20260506105336 75 143 2.0 6.0 0.00 0.00 0.00 93 1008.6
20260506104342 75 134 2.0 7.0 0.00 0.00 0.00 93 1008.6
20260506103325 75 165 4.0 9.0 0.00 0.00 0.00 93 1008.4
20260506102334 75 134 3.0 7.0 0.00 0.00 0.00 93 1008.4
20260506101342 75 136 2.0 5.0 0.00 0.00 0.00 93 1008.6
20260506100327 75 140 3.0 6.0 0.00 0.00 0.00 93 1008.5
20260506095337 75 138 3.0 6.0 0.00 0.00 0.00 93 1008.4
20260506094325 76 145 2.0 7.0 0.00 0.00 0.00 93 1008.3
20260506093327 76 140 4.0 7.0 0.00 0.00 0.00 93 1008.2
20260506092335 76 136 3.0 8.0 0.00 0.00 0.00 93 1008.3
20260506091341 76 138 4.0 10.0 0.00 0.00 0.00 93 1008.2
20260506090327 76 140 2.0 6.0 0.00 0.00 0.00 93 1008.1
20260506085339 76 136 3.0 8.0 0.00 0.00 0.00 92 1008.1
20260506084324 76 138 3.0 7.0 0.00 0.00 0.00 93 1008.4
20260506083325 76 142 2.0 4.0 0.00 0.00 0.00 93 1008.5
20260506082353 76 144 1.0 4.0 0.00 0.00 0.00 93 1008.5
20260506081400 76 153 2.0 4.0 0.00 0.00 0.00 93 1008.6
20260506080341 76 130 1.0 3.0 0.00 0.00 0.00 93 1008.8
20260506073346 76 134 2.0 4.0 0.00 0.00 0.00 93 1009.0
20260506072330 76 132 2.0 4.0 0.00 0.00 0.00 93 1009.1
20260506071338 76 127 0.0 5.0 0.00 0.00 0.00 92 1009.2
20260506070341 76 138 0.0 3.0 0.00 0.00 0.00 92 1009.4
20260506062323 77 140 3.0 8.0 0.00 0.00 0.00 92 1009.3
20260506061334 77 133 3.0 7.0 0.00 0.00 0.00 91 1009.4